Miscellaneous Local Product
Issued by NWS Hastings, NE

Home | Current Version | Previous Version | Graphics & Text | Print | Product List | Glossary On
Versions: 1 2 3 4 5 6 7 8 9 10 11 12 13 14 15 16 17 18 19 20 21 22 23 24 25 26 27 28 29 30 31 32 33 34 35 36 37 38 39 40 41 42 43 44 45 46 47 48 49 50
000
AXUS43 KGID 310202
MISGRI

GID CWA HOURLY WEATHER ROUNDUP
NATIONAL WEATHER SERVICE HASTINGS NE
900 PM CDT SAT AUG 30 2014

NOTE: "FAIR" INDICATES FEW OR NO CLOUDS BELOW 12,000 FEET WITH NO
SIGNIFICANT WEATHER AND/OR OBSTRUCTIONS TO VISIBILITY.

...SOUTH CENTRAL NEBRASKA...

CITY           SKY/WX    TMP DP  RH WIND       PRES   REMARKS
GRAND ISLAND   CLEAR     75  66  73 SE10      29.84F
HASTINGS       CLEAR     76  63  64 SE12      29.84F
KEARNEY        CLEAR     73  64  73 E10       29.83F
ORD            CLEAR     73  66  78 SE7       29.80F
YORK           CLEAR     72 N/A N/A SE8       29.86S
AURORA         CLEAR     71  68  90 SE6       29.84F
LEXINGTON      CLEAR     75  67  77 SE9       29.81F
HOLDREGE       CLEAR     70  64  80 CALM      29.83S
HEBRON         CLEAR     71  64  78 SE5       29.85S

...NEBRASKA PANHANDLE...

CITY           SKY/WX    TMP DP  RH WIND       PRES   REMARKS
CHADRON        LGT RAIN  69  59  70 S5        29.76F
ALLIANCE       CLOUDY    79  44  28 W29G41    29.83R
SCOTTSBLUFF    CLOUDY    77  48  35 W15G24    29.86R
SIDNEY         MOCLDY    78  45  30 W25G41    29.89R

...WESTERN AND NORTH CENTRAL NEBRASKA...

CITY           SKY/WX    TMP DP  RH WIND       PRES   REMARKS
VALENTINE      CLEAR     76  63  64 SE9       29.74S
AINSWORTH      CLEAR     73  64  71 SE13G18   29.77F
ONEILL         CLEAR     73  66  79 SE10      29.81S
BROKEN BOW     CLEAR     72  66  81 SE8       29.81F
IMPERIAL       CLEAR     76  55  48 S10       29.82S
NORTH PLATTE   CLEAR     70  64  81 E8        29.80R
MCCOOK         CLEAR     79  54  41 S12       29.81S

...EASTERN NEBRASKA...

CITY           SKY/WX    TMP DP  RH WIND       PRES   REMARKS
NORFOLK        CLEAR     70  62  76 SE7       29.84F
SO SIOUX CITY  CLEAR     68  62  81 SE7       29.85S
TEKAMAH        CLEAR     70  65  84 SE6       29.85F
COLUMBUS       CLEAR     72  64  78 E5        29.86S
ALBION         CLEAR     69  64  84 SE6       29.83F
OMAHA EPPLEY   CLEAR     73  63  70 SE6       29.87S
OFFUTT AFB     CLEAR     71  70  96 E5        29.87S
MILLARD        CLEAR     73  65  78 CALM      29.86S
LINCOLN        CLEAR     78  63  59 SE8       29.86S
NEBRASKA CITY  CLEAR     73  66  81 S5        29.88R
BEATRICE       CLEAR     77  66  69 SE6       29.86S
FALLS CITY     CLEAR     74  68  81 SE6       29.88R

...NORTHERN KANSAS...

CITY           SKY/WX    TMP DP  RH WIND       PRES   REMARKS
GOODLAND       CLEAR     77  56  48 SE14      29.87R
HILL CITY      CLEAR     79  57  46 S10       29.84R
NORTON         CLEAR     79  52  38 SE8       29.82S
PHILLIPSBURG   CLEAR     81  57  44 SE10      29.82S
SMITH CENTER   CLEAR     75  61  60 SE10      29.84S
BELOIT         CLEAR     79  61  53 SE7       29.83S
HAYS           CLEAR     81  54  39 S14       29.86R
RUSSELL        CLEAR     77  60  55 MISG      29.85S
CONCORDIA      CLEAR     73  66  78 SE8       29.86R
SALINA         CLEAR     78  59  51 S6        29.87R
TOPEKA         CLEAR     79  67  66 E5        29.88R



USA.gov is the U.S. government's official web portal to all federal, state and local government web resources and services.